[Iaude] MPEC J167: 2024 JT3 [a=2.06,e=0.53,i=2.1,H=29.1]

mpec at cfa.harvard.edu mpec at cfa.harvard.edu
Wed May 8 11:49:22 EDT 2024


M.P.E.C. 2024-J167                                  Issued 2024 May 8, 15:47 UT

     The Minor Planet Electronic Circulars contain information on unusual
         minor planets, routine data on comets and natural satellites,
         and occasional editorial announcements.  They are published
    on behalf of Division F of the International Astronomical Union by the
          Minor Planet Center, Smithsonian Astrophysical Observatory,
                          Cambridge, MA 02138, U.S.A.
			  
             Prepared using the Tamkin Foundation Computer Network

                              MPC at CFA.HARVARD.EDU
            URL https://www.minorplanetcenter.net/    ISSN 1523-6714

                                    2024 JT3                                    


Observations:
     K24J03T*1C2024 05 08.23165412 08 44.354-08 09 04.03         19.58GVEJ167G96
     K24J03T 1C2024 05 08.23726212 08 42.032-08 08 36.20         19.56GVEJ167G96
     K24J03T 1C2024 05 08.24290612 08 39.692-08 08 08.02         19.64GVEJ167G96
     K24J03T 1C2024 05 08.24852212 08 37.374-08 07 39.29         19.85GVEJ167G96
     K24J03T  C2024 05 08.26603612 09 34.939-08 02 22.61         19.77wXEJ167F51
     K24J03T mC2024 05 08.26618912 08 30.239-08 06 05.69         19.51GVEJ167I52
     K24J03T mC2024 05 08.26661612 08 30.062-08 06 03.56         19.85GVEJ167I52
     K24J03T mC2024 05 08.26704112 08 29.922-08 06 00.83         19.66GVEJ167I52
     K24J03T mC2024 05 08.26983512 08 28.781-08 05 45.96         19.48GVEJ167I52
     K24J03T  C2024 05 08.27645412 09 30.294-08 01 32.28         19.83wXEJ167F51
     K24J03T  C2024 05 08.28689112 09 25.451-08 00 40.01         19.83wXEJ167F51
     K24J03T mC2024 05 08.31671612 08 11.749-08 01 12.36         19.30GVEJ167I52
     K24J03T mC2024 05 08.31731412 08 11.544-08 01 08.47         19.42GVEJ167I52
     K24J03T mC2024 05 08.31791212 08 11.364-08 01 04.48         19.55GVEJ167I52
     K24J03T mC2024 05 08.31851012 08 11.180-08 01 00.91         19.53GVEJ167I52
     K24J03T KB2024 05 08.53028912 09 17.488-07 39 39.79         19.1 GXEJ167Q06
     K24J03T KB2024 05 08.53637712 09 14.334-07 38 48.65         19.0 GXEJ167Q06
     K24J03T KB2024 05 08.54246512 09 11.263-07 37 55.15         18.7 GXEJ167Q06
     K24J03T KB2024 05 08.57706 12 09 31.62 -07 34 44.4          18.7 GVEJ167P13
     K24J03T KB2024 05 08.58280 12 09 28.78 -07 33 51.9          19.1 GVEJ167P13
     K24J03T KB2024 05 08.58988 12 09 25.31 -07 32 45.6          18.4 GVEJ167P13
     K24J03T KB2024 05 08.59661 12 09 21.97 -07 31 40.1          18.5 GVEJ167P13
     K24J03T KB2024 05 08.60172 12 09 19.43 -07 30 49.9          19.0 GVEJ167P13

Observer details:
F51 Pan-STARRS 1, Haleakala.  Observers J. Herman, T. Lowe, P. Minguez, A.
    Schultz, I. Smith.  Measurers K. Chambers, T. de Boer, J. Fairlamb, H.
    Gao, M. Huber, C.-C. Lin, E. Magnier, Y. Ramanjooloo, R. Wainscoat, R.
    Weryk.  1.8-m Ritchey-Chretien + CCD.
G96 Mt. Lemmon Survey.  Observer J. K. Hogan.  Measurers T. Beuden, V. F.
    Carvajal, D. Fay, J. B. Fazekas, D. C. Fuls, A. R. Gibbs, A. D. Grauer, H.
    Groeller, J. K. Hogan, R. A. Kowalski, S. M. Larson, G. J. Leonard, D.
    Rankin, R. L. Seaman, F. C. Shelly, K. W. Wierzchos.  1.5-m reflector +
    10K CCD.
I52 Steward Observatory, Mt. Lemmon Station.  Observer H. Groeller.  Measurers
    T. Beuden, V. F. Carvajal, D. Fay, J. B. Fazekas, D. C. Fuls, A. R. Gibbs,
    A. D. Grauer, H. Groeller, J. K. Hogan, R. A. Kowalski, S. M. Larson, G.
    J. Leonard, D. Rankin, R. L. Seaman, F. C. Shelly, K. W. Wierzchos.  1.0-m
    prime focus + CCD.
P13 Baihuashan Observatory, Beijing.  Observers Z. Wang, B. Liu.  Measurer Z.
    Wang.  0.28-m f/2.2 reflector + CMO.
Q06 Tarui Observatory, Tarui.  Observer H. Watanabe.  0.35-m f/1.9 Schmidt-
    Cassegrain + CMO.

Orbital elements:
2024 JT3                                                 Earth MOID = 0.0002 AU
Epoch 2024 Mar. 31.0 TT = JDT 2460400.5                 Veres                   
M 339.14558              (2000.0)            P               Q                  
n   0.33265944     Peri.   29.38319     -0.20879676     +0.97757118             
a   2.0628587      Node   228.57950     -0.90427562     -0.20371269             
e   0.5318944      Incl.    2.10481     -0.37241041     -0.05343909             
P   2.96           H   29.19          G   0.15           U   8                  
Residuals in seconds of arc
240508 G96  0.0   0.1-    240508 I52  0.4-  0.1-    240508 Q06  0.6-  0.8-
240508 G96  0.1+  0.0     240508 F51  0.1+  0.1-    240508 Q06  0.1-  0.1-
240508 G96  0.0   0.2-    240508 F51  0.1-  0.0     240508 P13  0.6+  1.0+
240508 G96  0.1-  0.2-    240508 I52  0.1-  0.3-    240508 P13  0.2+  0.6+
240508 F51  0.0   0.0     240508 I52  0.3-  0.2-    240508 P13  0.6+  0.2+
240508 I52  0.1-  0.0     240508 I52  0.1-  0.1+    240508 P13  0.5+  0.9+
240508 I52  0.2-  0.2-    240508 I52  0.1+  0.0     240508 P13  0.5+  0.9+
240508 I52  0.2+  0.3+    240508 Q06  0.2+  0.2-

Ephemeris:
2024 JT3                 a,e,i = 2.06, 0.53, 2                   q = 0.9656
Date    TT    R. A. (2000) Decl.     Delta      r    Elong.  Phase     V
2024 04 08    12 18 52.9 -09 59 40   0.1795  1.1773   167.6    10.5    26.5
...
2024 04 23    12 11 25.5 -09 42 52   0.08983 1.0859   152.5    25.3    25.3
...
2024 05 01    12 08 53.1 -09 28 23   0.04562 1.0449   144.3    34.2    24.0
...
2024 05 07    12 08 24.1 -08 48 12   0.01307 1.0189   138.3    41.2    21.4
2024 05 08    12 08 52.1 -08 11 35   0.0076631.0149   137.3    42.4    20.3
2024 05 09    12 11 59.3 -04 40 04   0.0022401.0111   136.0    43.9    17.7
...
2024 05 15    00 22 39.4 -06 50 55   0.03033 0.9926    52.4   126.3    26.9
...
2024 05 23    00 24 51.5 -06 46 19   0.07353 0.9771    59.4   116.9    28.1
...
2024 06 07    00 32 35.1 -05 49 01   0.1526  0.9772    71.5   100.0    28.7

M. P. C. Staff               (C) Copyright 2024 MPC           M.P.E.C. 2024-J167





More information about the Iaude mailing list